User: anonymous   Login
Location: Montauk Point State Park
(41.0718°N, 71.8593°W)
Time: 07:53:59
(UTC-05:00)
Language:

Cosmos 1844 - Orbit

View from above orbital plane
View from above orbital plane
View from above satellite
View from above satellite

Ground track
Ground track

The orbit data is extracted from the following two-line orbital elements,

1 17973U 87041A   16041.14186035  .00000176  00000-0  11740-3 0  9997
2 17973  70.8949 232.6631 0030315 148.9218 211.3704 14.14014244483440
Epoch (UTC): 10 February 2016 03:24:16
Eccentricity: 0.0030315
inclination: 70.8949°
perigee height: 824 km
apogee height: 867 km
right ascension of ascending node: 232.6631°
argument of perigee: 148.9218°
revolutions per day: 14.14014244
mean anomaly at epoch: 211.3704°
orbit number at epoch: 48344

The dashed part of the orbit path shows where the satellite is in the earth's shadow,  

DLR